Location: Observatoire
(46.1952°N, 5.3391°E)
Time: 03:07:13
(UTC+01:00)

Altair - Pass Details

Date: 18 February 2026
Orbit: 1502 x 1682 km, 47.2° (Epoch: 13 March)

Event Time Altitude Azimuth Distance (km) Brightness Sun altitude
Rises 05:59:51 0° 242° (WSW) 4,630 - -17.5°
Reaches altitude 10° 06:02:50 10° 241° (WSW) 3,657 - -16.9°
Exits shadow 06:04:19 16° 240° (WSW) 3,184 8.6 -16.7°
Maximum altitude 06:12:01 77° 158° (SSE) 1,570 7.6 -15.4°
Drops below altitude 10° 06:21:30 10° 74° (ENE) 3,773 10.8 -13.7°
Sets 06:24:38 0° 73° (ENE) 4,783 11.6 -13.2°
